Location: Casone le Fosse
(44.6547°N, 12.1103°E)
Time: 07:37:05
(UTC+00:00)

Cosmos 1953 Rocket - Pass Details

Date: 29 October 2020
Orbit: 605 x 634 km, 82.5° (Epoch: 28 November)

Event Time Altitude Azimuth Distance (km) Brightness Sun altitude
Rises 16:33:15 0° 354° (N) 2,905 6.9 -5.8°
Reaches altitude 10° 16:35:30 10° 357° (N) 1,999 6.1 -6.2°
Maximum altitude 16:39:54 65° 80° (E) 693 3.6 -6.9°
Drops below altitude 10° 16:44:18 10° 162° (SSE) 2,000 6.1 -7.7°
Sets 16:46:33 0° 165° (SSE) 2,906 7.0 -8.1°
